Regional Weather Roundup
Issued by NWS Newport/Morehead, NC

Current Version | Previous Version | Text Only | Print | Product List | Glossary On
Versions: 1 2 3 4 5 6 7 8 9 10 11 12 13 14 15 16 17 18 19 20 21 22 23 24 25 26 27 28 29 30 31 32 33 34 35 36 37 38 39 40 41 42 43 44 45 46 47 48 49 50
000
ASUS42 KMHX 090013
RWRMHX
WEATHER ROUNDUP FOR EASTERN NORTH CAROLINA
NATIONAL WEATHER SERVICE NEWPORT/MOREHEAD CITY NC
700 PM EST MON FEB 08 2016

NOTE: "FAIR" INDICATES FEW OR NO CLOUDS BELOW 12,000 FEET
WITH NO SIGNIFICANT WEATHER AND/OR OBSTRUCTIONS TO VISIBILITY

NCZ015>017-031-032-045>047-102-103-090100-
NORTH COAST

CITY           SKY/WX    TMP DP  RH WIND       PRES   REMARKS
EDENTON        CLOUDY    46  38  75 E10G17    29.70S
ELIZABETH CITY PTCLDY    42  36  79 E10       29.72F
KITTY HAWK     CLOUDY    42  36  76 E5        29.71F
MANTEO         CLOUDY    42  37  83 SE8       29.74S

$$

NCZ045>047-081-094-103-104-090100-
CENTRAL COAST

CITY           SKY/WX    TMP DP  RH WIND       PRES   REMARKS
FRISCO         PTCLDY    45  37  73 E7        29.72F
SWANQUARTER      N/A     45 N/A N/A SE2       29.68S

$$

NCZ095-097-098-100-101-090100-
SOUTHERN COAST

CITY           SKY/WX    TMP DP  RH WIND       PRES   REMARKS
BEAUFORT       PTCLDY    51  38  60 SW14      29.69F
CEDAR ISLAND     N/A     45 N/A N/A SE2       29.74S
JACKSONVILLE   PTCLDY    48  36  63 S7        29.68S
PINEY ISLAND   PTCLDY   N/A N/A N/A SE3       29.70S
WILMINGTON     CLEAR     52  35  52 SW12      29.68F


$$

NCZ011>013-027>030-043-044-078>080-089-090>093-098-090100-
COASTAL PLAIN

CITY           SKY/WX    TMP DP  RH WIND       PRES   REMARKS
AHOSKIE        MOCLDY    46  31  58 CALM      29.69S
CLINTON        RAIN      45  43  93 W12G22    29.74R
ELIZABETHTOWN  LGT RAIN  46  42  86 NW15G21   29.73R
GOLDSBORO      LGT RAIN  50  37  62 W16       29.67R
GREENVILLE     CLEAR     50  34  53 SE3       29.71S
HAVELOCK       PTCLDY    45  38  76 S3        29.70S
KENANSVILLE    CLOUDY    49  34  56 CALM      29.69R
KINSTON        CLEAR     48  36  61 CALM      29.68S
NEW BERN       MOCLDY    45  36  70 CALM      29.70S
RICHLANDS      CLEAR     45  34  65 S5        29.68S
ROCKY MOUNT    LGT RAIN  49  36  61 W9G18     29.70R
WASHINGTON     PTCLDY    46  33  59 CALM      29.69R
WHITEVILLE     DRIZZLE   46  42  86 W7        29.74R

$$

AMZ130-135-150-152-154-156-158-170-250-252-270-ANZ085-086-088-633-658-670-090100-
MARINE OBSERVATIONS

STATION/POSITION TIME  TEMP    WIND        PRES    WAVE   SWELL
                       AIR SEA DIR/SP/G            HT/PER HT/PER
                 (UTC) (F)     (DEG/KT/KT) (MB)    (FT/S) (FT/S)
CHESAPEAKE LIGHT 0000   42      90/ 14/ 15 1007.3
64 E VA BEACH    2350   45 52   10/  4/  8 1007.1   15/14  15/14
DUCK             2300   43     120/ 10/ 11 1006.5
2 E DUCK         2311      44                N/A    12/12  10/12
OREGON INLET     2300   43 45   90/  6/  8 1007.0
13E OREGON INLT  0000      47                N/A    16/13  15/13
HATTERAS CG      2300   48 51  110/  5/  7 1006.2
DIAMOND BUOY     2350   54 74   30/  2/ 14 1006.3   12/15  11/15
CAPE LOOKOUT     NOT AVBL
BEAUFORT LAB     2300   50 47  180/  5/  6 1004.5
30 SE NEW RVR IN 2308   58 62              1005.2
30 SE NEW RVR IN 2325      62                N/A     6/14   3/14
27 SE WRIGHTSVLE 2308   56 61  250/ 19/ 27 1005.0
5 SE WRIGHTSVLE  NOT AVBL
225 S CAPE HAT   2350   63 69  260/ 21/ 27   N/A    13/15  10/15
41 SE CHARLESTON 2350   60 65  220/ 29/ 35 1005.3   10/ 6   3/16

$$




USA.gov is the U.S. government's official web portal to all federal, state and local government web resources and services.